owner,sensor,date,latitude,longitude,relative_humidity,qcFlag 
COMPS,ioos:station:USF.COMPS:ARP:1,2015-02-01T00:00:00Z,28.4330,-82.6670,57.8,1111122 
COMPS,ioos:station:USF.COMPS:ARP:1,2015-02-01T00:06:00Z,28.4330,-82.6670,57.97,1111122 
COMPS,ioos:station:USF.COMPS:ARP:1,2015-02-01T00:12:00Z,28.4330,-82.6670,58.68,1111122 
COMPS,ioos:station:USF.COMPS:ARP:1,2015-02-01T00:18:00Z,28.4330,-82.6670,59.16,1111122 
COMPS,ioos:station:USF.COMPS:ARP:1,2015-02-01T00:24:00Z,28.4330,-82.6670,59.28,1111122 
COMPS,ioos:station:USF.COMPS:ARP:1,2015-02-01T00:30:00Z,28.4330,-82.6670,59.34,1111122 
COMPS,ioos:station:USF.COMPS:ARP:1,2015-02-01T00:36:00Z,28.4330,-82.6670,59.52,1111122 
COMPS,ioos:station:USF.COMPS:ARP:1,2015-02-01T00:42:00Z,28.4330,-82.6670,59.53,1111122 
COMPS,ioos:station:USF.COMPS:ARP:1,2015-02-01T00:48:00Z,28.4330,-82.6670,60.12,1111122 
COMPS,ioos:station:USF.COMPS:ARP:1,2015-02-01T00:54:00Z,28.4330,-82.6670,60.28,1111122 
COMPS,ioos:station:USF.COMPS:ARP:1,2015-02-01T01:00:00Z,28.4330,-82.6670,60.99,1111122 
COMPS,ioos:station:USF.COMPS:ARP:1,2015-02-01T01:06:00Z,28.4330,-82.6670,61.61,1111122 
COMPS,ioos:station:USF.COMPS:ARP:1,2015-02-01T01:12:00Z,28.4330,-82.6670,61.96,1111122 
COMPS,ioos:station:USF.COMPS:ARP:1,2015-02-01T01:18:00Z,28.4330,-82.6670,62.58,1111122 
COMPS,ioos:station:USF.COMPS:ARP:1,2015-02-01T01:24:00Z,28.4330,-82.6670,63.17,1111122 
COMPS,ioos:station:USF.COMPS:ARP:1,2015-02-01T01:30:00Z,28.4330,-82.6670,63.85,1111122 
COMPS,ioos:station:USF.COMPS:ARP:1,2015-02-01T01:36:00Z,28.4330,-82.6670,64.3,1111122 
COMPS,ioos:station:USF.COMPS:ARP:1,2015-02-01T01:42:00Z,28.4330,-82.6670,64.69,1111122 
COMPS,ioos:station:USF.COMPS:ARP:1,2015-02-01T01:48:00Z,28.4330,-82.6670,65.14,1111122 
COMPS,ioos:station:USF.COMPS:ARP:1,2015-02-01T01:54:00Z,28.4330,-82.6670,65.8,1111122 
COMPS,ioos:station:USF.COMPS:ARP:1,2015-02-01T02:00:00Z,28.4330,-82.6670,66.24,1111122 
COMPS,ioos:station:USF.COMPS:ARP:1,2015-02-01T02:06:00Z,28.4330,-82.6670,67.01,1111122 
COMPS,ioos:station:USF.COMPS:ARP:1,2015-02-01T02:12:00Z,28.4330,-82.6670,67.4,1111122 
COMPS,ioos:station:USF.COMPS:ARP:1,2015-02-01T02:18:00Z,28.4330,-82.6670,68.17,1111122 
COMPS,ioos:station:USF.COMPS:ARP:1,2015-02-01T02:24:00Z,28.4330,-82.6670,68.48,1111122 
COMPS,ioos:station:USF.COMPS:ARP:1,2015-02-01T02:30:00Z,28.4330,-82.6670,69.08,1111122 
COMPS,ioos:station:USF.COMPS:ARP:1,2015-02-01T02:36:00Z,28.4330,-82.6670,69.47,1111122 
COMPS,ioos:station:USF.COMPS:ARP:1,2015-02-01T02:42:00Z,28.4330,-82.6670,70.09,1111122 
COMPS,ioos:station:USF.COMPS:ARP:1,2015-02-01T02:48:00Z,28.4330,-82.6670,70.79,1111122 
COMPS,ioos:station:USF.COMPS:ARP:1,2015-02-01T02:54:00Z,28.4330,-82.6670,71.18,1111122 
COMPS,ioos:station:USF.COMPS:ARP:1,2015-02-01T03:00:00Z,28.4330,-82.6670,71.38,1111122 
COMPS,ioos:station:USF.COMPS:ARP:1,2015-02-01T03:06:00Z,28.4330,-82.6670,71.94,1111122 
COMPS,ioos:station:USF.COMPS:ARP:1,2015-02-01T03:12:00Z,28.4330,-82.6670,72.59,1111122 
COMPS,ioos:station:USF.COMPS:ARP:1,2015-02-01T03:18:00Z,28.4330,-82.6670,72.88,1111122 
COMPS,ioos:station:USF.COMPS:ARP:1,2015-02-01T03:24:00Z,28.4330,-82.6670,73.38,1111122 
COMPS,ioos:station:USF.COMPS:ARP:1,2015-02-01T03:30:00Z,28.4330,-82.6670,73.7,1111122 
COMPS,ioos:station:USF.COMPS:ARP:1,2015-02-01T03:36:00Z,28.4330,-82.6670,74.2,1111122 
COMPS,ioos:station:USF.COMPS:ARP:1,2015-02-01T03:42:00Z,28.4330,-82.6670,74.7,1111122 
COMPS,ioos:station:USF.COMPS:ARP:1,2015-02-01T03:48:00Z,28.4330,-82.6670,74.85,1111122 
COMPS,ioos:station:USF.COMPS:ARP:1,2015-02-01T03:54:00Z,28.4330,-82.6670,75.29,1111122 
COMPS,ioos:station:USF.COMPS:ARP:1,2015-02-01T04:00:00Z,28.4330,-82.6670,75.7,1111122 
COMPS,ioos:station:USF.COMPS:ARP:1,2015-02-01T04:06:00Z,28.4330,-82.6670,76.24,1111122 
COMPS,ioos:station:USF.COMPS:ARP:1,2015-02-01T04:12:00Z,28.4330,-82.6670,76.72,1111122 
COMPS,ioos:station:USF.COMPS:ARP:1,2015-02-01T04:18:00Z,28.4330,-82.6670,76.96,1111122 
COMPS,ioos:station:USF.COMPS:ARP:1,2015-02-01T04:24:00Z,28.4330,-82.6670,77.35,1111122 
COMPS,ioos:station:USF.COMPS:ARP:1,2015-02-01T04:30:00Z,28.4330,-82.6670,77.82,1111122 
COMPS,ioos:station:USF.COMPS:ARP:1,2015-02-01T04:36:00Z,28.4330,-82.6670,78.27,1111122 
COMPS,ioos:station:USF.COMPS:ARP:1,2015-02-01T04:42:00Z,28.4330,-82.6670,78.55,1111122 
COMPS,ioos:station:USF.COMPS:ARP:1,2015-02-01T04:48:00Z,28.4330,-82.6670,78.71,1111122 
COMPS,ioos:station:USF.COMPS:ARP:1,2015-02-01T04:54:00Z,28.4330,-82.6670,78.78,1111122 
COMPS,ioos:station:USF.COMPS:ARP:1,2015-02-01T05:00:00Z,28.4330,-82.6670,79.24,1111122 
COMPS,ioos:station:USF.COMPS:ARP:1,2015-02-01T05:06:00Z,28.4330,-82.6670,79.66,1111122 
COMPS,ioos:station:USF.COMPS:ARP:1,2015-02-01T05:12:00Z,28.4330,-82.6670,80.18,1111122 
COMPS,ioos:station:USF.COMPS:ARP:1,2015-02-01T05:18:00Z,28.4330,-82.6670,80.57,1111122 
COMPS,ioos:station:USF.COMPS:ARP:1,2015-02-01T05:24:00Z,28.4330,-82.6670,81.36,1111122 
COMPS,ioos:station:USF.COMPS:ARP:1,2015-02-01T05:30:00Z,28.4330,-82.6670,81.83,1111122 
COMPS,ioos:station:USF.COMPS:ARP:1,2015-02-01T05:36:00Z,28.4330,-82.6670,81.94,1111122 
COMPS,ioos:station:USF.COMPS:ARP:1,2015-02-01T05:42:00Z,28.4330,-82.6670,82.19,1111122 
COMPS,ioos:station:USF.COMPS:ARP:1,2015-02-01T05:48:00Z,28.4330,-82.6670,82.45,1111122 
COMPS,ioos:station:USF.COMPS:ARP:1,2015-02-01T05:54:00Z,28.4330,-82.6670,82.66,1111122 
COMPS,ioos:station:USF.COMPS:ARP:1,2015-02-01T06:00:00Z,28.4330,-82.6670,83.11,1111122 
COMPS,ioos:station:USF.COMPS:ARP:1,2015-02-01T06:06:00Z,28.4330,-82.6670,83.55,1111122 
COMPS,ioos:station:USF.COMPS:ARP:1,2015-02-01T06:12:00Z,28.4330,-82.6670,84.13,1111122 
COMPS,ioos:station:USF.COMPS:ARP:1,2015-02-01T06:18:00Z,28.4330,-82.6670,84.39,1111122 
COMPS,ioos:station:USF.COMPS:ARP:1,2015-02-01T06:24:00Z,28.4330,-82.6670,84.88,1111122 
COMPS,ioos:station:USF.COMPS:ARP:1,2015-02-01T06:30:00Z,28.4330,-82.6670,85.36,1111122 
COMPS,ioos:station:USF.COMPS:ARP:1,2015-02-01T06:36:00Z,28.4330,-82.6670,85.61,1111122 
COMPS,ioos:station:USF.COMPS:ARP:1,2015-02-01T06:42:00Z,28.4330,-82.6670,85.82,1111122 
COMPS,ioos:station:USF.COMPS:ARP:1,2015-02-01T06:48:00Z,28.4330,-82.6670,86.3,1111122 
COMPS,ioos:station:USF.COMPS:ARP:1,2015-02-01T06:54:00Z,28.4330,-82.6670,86.52,1111122 
COMPS,ioos:station:USF.COMPS:ARP:1,2015-02-01T07:00:00Z,28.4330,-82.6670,86.81,1111122 
COMPS,ioos:station:USF.COMPS:ARP:1,2015-02-01T07:06:00Z,28.4330,-82.6670,87.11,1111122 
COMPS,ioos:station:USF.COMPS:ARP:1,2015-02-01T07:12:00Z,28.4330,-82.6670,87.39,1111122 
COMPS,ioos:station:USF.COMPS:ARP:1,2015-02-01T07:18:00Z,28.4330,-82.6670,87.77,1111122 
COMPS,ioos:station:USF.COMPS:ARP:1,2015-02-01T07:24:00Z,28.4330,-82.6670,88.01,1111122 
COMPS,ioos:station:USF.COMPS:ARP:1,2015-02-01T07:30:00Z,28.4330,-82.6670,88.19,1111122 
COMPS,ioos:station:USF.COMPS:ARP:1,2015-02-01T07:36:00Z,28.4330,-82.6670,88.3,1111122 
COMPS,ioos:station:USF.COMPS:ARP:1,2015-02-01T07:42:00Z,28.4330,-82.6670,88.61,1111122 
COMPS,ioos:station:USF.COMPS:ARP:1,2015-02-01T07:48:00Z,28.4330,-82.6670,88.96,1111122 
COMPS,ioos:station:USF.COMPS:ARP:1,2015-02-01T07:54:00Z,28.4330,-82.6670,89.05,1111122 
COMPS,ioos:station:USF.COMPS:ARP:1,2015-02-01T08:00:00Z,28.4330,-82.6670,89.15,1111122 
COMPS,ioos:station:USF.COMPS:ARP:1,2015-02-01T08:06:00Z,28.4330,-82.6670,89.29,1111122 
COMPS,ioos:station:USF.COMPS:ARP:1,2015-02-01T08:12:00Z,28.4330,-82.6670,89.36,1111122 
COMPS,ioos:station:USF.COMPS:ARP:1,2015-02-01T08:18:00Z,28.4330,-82.6670,89.64,1111122 
COMPS,ioos:station:USF.COMPS:ARP:1,2015-02-01T08:24:00Z,28.4330,-82.6670,89.74,1111122 
COMPS,ioos:station:USF.COMPS:ARP:1,2015-02-01T08:30:00Z,28.4330,-82.6670,89.78,1111122 
COMPS,ioos:station:USF.COMPS:ARP:1,2015-02-01T08:36:00Z,28.4330,-82.6670,89.94,1111122 
COMPS,ioos:station:USF.COMPS:ARP:1,2015-02-01T08:42:00Z,28.4330,-82.6670,90.08,1111122 
COMPS,ioos:station:USF.COMPS:ARP:1,2015-02-01T08:48:00Z,28.4330,-82.6670,90.14,1111122 
COMPS,ioos:station:USF.COMPS:ARP:1,2015-02-01T08:54:00Z,28.4330,-82.6670,90.24,1111122 
COMPS,ioos:station:USF.COMPS:ARP:1,2015-02-01T09:00:00Z,28.4330,-82.6670,90.22,1111122 
COMPS,ioos:station:USF.COMPS:ARP:1,2015-02-01T09:06:00Z,28.4330,-82.6670,90.32,1111122 
COMPS,ioos:station:USF.COMPS:ARP:1,2015-02-01T09:12:00Z,28.4330,-82.6670,90.69,1111122 
COMPS,ioos:station:USF.COMPS:ARP:1,2015-02-01T09:18:00Z,28.4330,-82.6670,90.95,1111122 
COMPS,ioos:station:USF.COMPS:ARP:1,2015-02-01T09:24:00Z,28.4330,-82.6670,90.75,1111122 
COMPS,ioos:station:USF.COMPS:ARP:1,2015-02-01T09:30:00Z,28.4330,-82.6670,90.84,1111122 
COMPS,ioos:station:USF.COMPS:ARP:1,2015-02-01T09:36:00Z,28.4330,-82.6670,90.75,1111122 
COMPS,ioos:station:USF.COMPS:ARP:1,2015-02-01T09:42:00Z,28.4330,-82.6670,90.8,1111122 
COMPS,ioos:station:USF.COMPS:ARP:1,2015-02-01T09:48:00Z,28.4330,-82.6670,90.74,1111122 
COMPS,ioos:station:USF.COMPS:ARP:1,2015-02-01T09:54:00Z,28.4330,-82.6670,90.71,1111122 
COMPS,ioos:station:USF.COMPS:ARP:1,2015-02-01T10:00:00Z,28.4330,-82.6670,90.74,1111122 
COMPS,ioos:station:USF.COMPS:ARP:1,2015-02-01T10:06:00Z,28.4330,-82.6670,91.03,1111122 
COMPS,ioos:station:USF.COMPS:ARP:1,2015-02-01T10:12:00Z,28.4330,-82.6670,90.77,1111122 
COMPS,ioos:station:USF.COMPS:ARP:1,2015-02-01T10:18:00Z,28.4330,-82.6670,90.67,1111122 
COMPS,ioos:station:USF.COMPS:ARP:1,2015-02-01T10:24:00Z,28.4330,-82.6670,90.91,1111122 
COMPS,ioos:station:USF.COMPS:ARP:1,2015-02-01T10:30:00Z,28.4330,-82.6670,90.77,1111122 
COMPS,ioos:station:USF.COMPS:ARP:1,2015-02-01T10:36:00Z,28.4330,-82.6670,90.55,1111122 
COMPS,ioos:station:USF.COMPS:ARP:1,2015-02-01T10:42:00Z,28.4330,-82.6670,90.51,1111122 
COMPS,ioos:station:USF.COMPS:ARP:1,2015-02-01T10:48:00Z,28.4330,-82.6670,90.11,1111122 
COMPS,ioos:station:USF.COMPS:ARP:1,2015-02-01T10:54:00Z,28.4330,-82.6670,89.79,1111122 
COMPS,ioos:station:USF.COMPS:ARP:1,2015-02-01T11:00:00Z,28.4330,-82.6670,89.91,1111122 
COMPS,ioos:station:USF.COMPS:ARP:1,2015-02-01T11:06:00Z,28.4330,-82.6670,90.01,1111122 
COMPS,ioos:station:USF.COMPS:ARP:1,2015-02-01T11:12:00Z,28.4330,-82.6670,89.9,1111122 
COMPS,ioos:station:USF.COMPS:ARP:1,2015-02-01T11:18:00Z,28.4330,-82.6670,89.98,1111122 
COMPS,ioos:station:USF.COMPS:ARP:1,2015-02-01T11:24:00Z,28.4330,-82.6670,89.84,1111122 
COMPS,ioos:station:USF.COMPS:ARP:1,2015-02-01T11:30:00Z,28.4330,-82.6670,89.85,1111122 
COMPS,ioos:station:USF.COMPS:ARP:1,2015-02-01T11:36:00Z,28.4330,-82.6670,89.81,1111122 
COMPS,ioos:station:USF.COMPS:ARP:1,2015-02-01T11:42:00Z,28.4330,-82.6670,89.62,1111122 
COMPS,ioos:station:USF.COMPS:ARP:1,2015-02-01T11:48:00Z,28.4330,-82.6670,89.38,1111122 
COMPS,ioos:station:USF.COMPS:ARP:1,2015-02-01T11:54:00Z,28.4330,-82.6670,89.34,1111122 
COMPS,ioos:station:USF.COMPS:ARP:1,2015-02-01T12:00:00Z,28.4330,-82.6670,89.76,1111122 
COMPS,ioos:station:USF.COMPS:ARP:1,2015-02-01T12:06:00Z,28.4330,-82.6670,90.08,1111122 
COMPS,ioos:station:USF.COMPS:ARP:1,2015-02-01T12:12:00Z,28.4330,-82.6670,90.36,1111122 
COMPS,ioos:station:USF.COMPS:ARP:1,2015-02-01T12:18:00Z,28.4330,-82.6670,90.41,1111122 
COMPS,ioos:station:USF.COMPS:ARP:1,2015-02-01T12:24:00Z,28.4330,-82.6670,90.62,1111122 
COMPS,ioos:station:USF.COMPS:ARP:1,2015-02-01T12:30:00Z,28.4330,-82.6670,90.65,1111122 
COMPS,ioos:station:USF.COMPS:ARP:1,2015-02-01T12:36:00Z,28.4330,-82.6670,90.66,1111122 
COMPS,ioos:station:USF.COMPS:ARP:1,2015-02-01T12:42:00Z,28.4330,-82.6670,90.37,1111122 
COMPS,ioos:station:USF.COMPS:ARP:1,2015-02-01T12:48:00Z,28.4330,-82.6670,90.02,1111122 
COMPS,ioos:station:USF.COMPS:ARP:1,2015-02-01T12:54:00Z,28.4330,-82.6670,89.73,1111122 
COMPS,ioos:station:USF.COMPS:ARP:1,2015-02-01T13:00:00Z,28.4330,-82.6670,89.63,1111122 
COMPS,ioos:station:USF.COMPS:ARP:1,2015-02-01T13:06:00Z,28.4330,-82.6670,89.84,1111122 
COMPS,ioos:station:USF.COMPS:ARP:1,2015-02-01T13:12:00Z,28.4330,-82.6670,89.82,1111122 
COMPS,ioos:station:USF.COMPS:ARP:1,2015-02-01T13:18:00Z,28.4330,-82.6670,89.05,1111122 
COMPS,ioos:station:USF.COMPS:ARP:1,2015-02-01T13:24:00Z,28.4330,-82.6670,87.8,1111122 
COMPS,ioos:station:USF.COMPS:ARP:1,2015-02-01T13:30:00Z,28.4330,-82.6670,86.31,1111122 
COMPS,ioos:station:USF.COMPS:ARP:1,2015-02-01T13:36:00Z,28.4330,-82.6670,84.65,1111122 
COMPS,ioos:station:USF.COMPS:ARP:1,2015-02-01T13:42:00Z,28.4330,-82.6670,83.23,1111122 
COMPS,ioos:station:USF.COMPS:ARP:1,2015-02-01T13:48:00Z,28.4330,-82.6670,82.33,1111122 
COMPS,ioos:station:USF.COMPS:ARP:1,2015-02-01T13:54:00Z,28.4330,-82.6670,81.46,1111122 
COMPS,ioos:station:USF.COMPS:ARP:1,2015-02-01T14:00:00Z,28.4330,-82.6670,80.98,1111122 
COMPS,ioos:station:USF.COMPS:ARP:1,2015-02-01T14:06:00Z,28.4330,-82.6670,80.43,1111122 
COMPS,ioos:station:USF.COMPS:ARP:1,2015-02-01T14:12:00Z,28.4330,-82.6670,79.09,1111122 
COMPS,ioos:station:USF.COMPS:ARP:1,2015-02-01T14:18:00Z,28.4330,-82.6670,76.78,1111122 
COMPS,ioos:station:USF.COMPS:ARP:1,2015-02-01T14:24:00Z,28.4330,-82.6670,74.45,1111122 
COMPS,ioos:station:USF.COMPS:ARP:1,2015-02-01T14:30:00Z,28.4330,-82.6670,72.67,1111122 
COMPS,ioos:station:USF.COMPS:ARP:1,2015-02-01T14:36:00Z,28.4330,-82.6670,69.61,1111122 
COMPS,ioos:station:USF.COMPS:ARP:1,2015-02-01T14:42:00Z,28.4330,-82.6670,67.56,1111122 
COMPS,ioos:station:USF.COMPS:ARP:1,2015-02-01T14:48:00Z,28.4330,-82.6670,66.21,1111122 
COMPS,ioos:station:USF.COMPS:ARP:1,2015-02-01T14:54:00Z,28.4330,-82.6670,64.85,1111122 
COMPS,ioos:station:USF.COMPS:ARP:1,2015-02-01T15:00:00Z,28.4330,-82.6670,63.72,1111122 
COMPS,ioos:station:USF.COMPS:ARP:1,2015-02-01T15:06:00Z,28.4330,-82.6670,62.83,1111122 
COMPS,ioos:station:USF.COMPS:ARP:1,2015-02-01T15:12:00Z,28.4330,-82.6670,62.27,1111122 
COMPS,ioos:station:USF.COMPS:ARP:1,2015-02-01T15:18:00Z,28.4330,-82.6670,61.08,1111122 
COMPS,ioos:station:USF.COMPS:ARP:1,2015-02-01T15:24:00Z,28.4330,-82.6670,60.06,1111122 
COMPS,ioos:station:USF.COMPS:ARP:1,2015-02-01T15:30:00Z,28.4330,-82.6670,59.1,1111122 
COMPS,ioos:station:USF.COMPS:ARP:1,2015-02-01T15:36:00Z,28.4330,-82.6670,57.92,1111122 
COMPS,ioos:station:USF.COMPS:ARP:1,2015-02-01T15:42:00Z,28.4330,-82.6670,56.84,1111122 
COMPS,ioos:station:USF.COMPS:ARP:1,2015-02-01T15:48:00Z,28.4330,-82.6670,55.26,1111122 
COMPS,ioos:station:USF.COMPS:ARP:1,2015-02-01T15:54:00Z,28.4330,-82.6670,54.77,1111122 
COMPS,ioos:station:USF.COMPS:ARP:1,2015-02-01T16:00:00Z,28.4330,-82.6670,54.18,1111122 
COMPS,ioos:station:USF.COMPS:ARP:1,2015-02-01T16:06:00Z,28.4330,-82.6670,54.42,1111122 
COMPS,ioos:station:USF.COMPS:ARP:1,2015-02-01T16:12:00Z,28.4330,-82.6670,54.31,1111122 
COMPS,ioos:station:USF.COMPS:ARP:1,2015-02-01T16:18:00Z,28.4330,-82.6670,53.67,1111122 
COMPS,ioos:station:USF.COMPS:ARP:1,2015-02-01T16:24:00Z,28.4330,-82.6670,53.53,1111122 
COMPS,ioos:station:USF.COMPS:ARP:1,2015-02-01T16:30:00Z,28.4330,-82.6670,53.71,1111122 
COMPS,ioos:station:USF.COMPS:ARP:1,2015-02-01T16:36:00Z,28.4330,-82.6670,52.95,1111122 
COMPS,ioos:station:USF.COMPS:ARP:1,2015-02-01T16:42:00Z,28.4330,-82.6670,53.01,1111122 
COMPS,ioos:station:USF.COMPS:ARP:1,2015-02-01T16:48:00Z,28.4330,-82.6670,53.2,1111122 
COMPS,ioos:station:USF.COMPS:ARP:1,2015-02-01T16:54:00Z,28.4330,-82.6670,52.61,1111122 
COMPS,ioos:station:USF.COMPS:ARP:1,2015-02-01T17:00:00Z,28.4330,-82.6670,52.41,1111122 
COMPS,ioos:station:USF.COMPS:ARP:1,2015-02-01T17:06:00Z,28.4330,-82.6670,51.37,1111122 
COMPS,ioos:station:USF.COMPS:ARP:1,2015-02-01T17:12:00Z,28.4330,-82.6670,51.68,1111122 
COMPS,ioos:station:USF.COMPS:ARP:1,2015-02-01T17:18:00Z,28.4330,-82.6670,50.8,1111122 
COMPS,ioos:station:USF.COMPS:ARP:1,2015-02-01T17:24:00Z,28.4330,-82.6670,50.85,1111122 
COMPS,ioos:station:USF.COMPS:ARP:1,2015-02-01T17:30:00Z,28.4330,-82.6670,51.57,1111122 
COMPS,ioos:station:USF.COMPS:ARP:1,2015-02-01T17:36:00Z,28.4330,-82.6670,51.37,1111122 
COMPS,ioos:station:USF.COMPS:ARP:1,2015-02-01T17:42:00Z,28.4330,-82.6670,51.16,1111122 
COMPS,ioos:station:USF.COMPS:ARP:1,2015-02-01T17:48:00Z,28.4330,-82.6670,50.84,1111122 
COMPS,ioos:station:USF.COMPS:ARP:1,2015-02-01T17:54:00Z,28.4330,-82.6670,50.81,1111122 
COMPS,ioos:station:USF.COMPS:ARP:1,2015-02-01T18:00:00Z,28.4330,-82.6670,50.24,1111122 
COMPS,ioos:station:USF.COMPS:ARP:1,2015-02-01T18:06:00Z,28.4330,-82.6670,47.62,1111122 
COMPS,ioos:station:USF.COMPS:ARP:1,2015-02-01T18:12:00Z,28.4330,-82.6670,49.43,1111122 
COMPS,ioos:station:USF.COMPS:ARP:1,2015-02-01T18:18:00Z,28.4330,-82.6670,49.66,1111122 
COMPS,ioos:station:USF.COMPS:ARP:1,2015-02-01T18:24:00Z,28.4330,-82.6670,49.25,1111122 
COMPS,ioos:station:USF.COMPS:ARP:1,2015-02-01T18:30:00Z,28.4330,-82.6670,49.42,1111122 
COMPS,ioos:station:USF.COMPS:ARP:1,2015-02-01T18:36:00Z,28.4330,-82.6670,47.3,1111122 
COMPS,ioos:station:USF.COMPS:ARP:1,2015-02-01T18:42:00Z,28.4330,-82.6670,46.52,1111122 
COMPS,ioos:station:USF.COMPS:ARP:1,2015-02-01T18:48:00Z,28.4330,-82.6670,45.68,1111122 
COMPS,ioos:station:USF.COMPS:ARP:1,2015-02-01T18:54:00Z,28.4330,-82.6670,46.51,1111122 
COMPS,ioos:station:USF.COMPS:ARP:1,2015-02-01T19:00:00Z,28.4330,-82.6670,45.66,1111122 
COMPS,ioos:station:USF.COMPS:ARP:1,2015-02-01T19:06:00Z,28.4330,-82.6670,46.04,1111122 
COMPS,ioos:station:USF.COMPS:ARP:1,2015-02-01T19:12:00Z,28.4330,-82.6670,45.63,1111122 
COMPS,ioos:station:USF.COMPS:ARP:1,2015-02-01T19:18:00Z,28.4330,-82.6670,45.37,1111122 
COMPS,ioos:station:USF.COMPS:ARP:1,2015-02-01T19:24:00Z,28.4330,-82.6670,45.12,1111122 
COMPS,ioos:station:USF.COMPS:ARP:1,2015-02-01T19:30:00Z,28.4330,-82.6670,44.83,1111122 
COMPS,ioos:station:USF.COMPS:ARP:1,2015-02-01T19:36:00Z,28.4330,-82.6670,44.88,1111122 
COMPS,ioos:station:USF.COMPS:ARP:1,2015-02-01T19:42:00Z,28.4330,-82.6670,45.17,1111122 
COMPS,ioos:station:USF.COMPS:ARP:1,2015-02-01T19:48:00Z,28.4330,-82.6670,45.45,1111122 
COMPS,ioos:station:USF.COMPS:ARP:1,2015-02-01T19:54:00Z,28.4330,-82.6670,44.98,1111122 
COMPS,ioos:station:USF.COMPS:ARP:1,2015-02-01T20:00:00Z,28.4330,-82.6670,44.72,1111122 
COMPS,ioos:station:USF.COMPS:ARP:1,2015-02-01T20:06:00Z,28.4330,-82.6670,45.13,1111122 
COMPS,ioos:station:USF.COMPS:ARP:1,2015-02-01T20:12:00Z,28.4330,-82.6670,45.19,1111122 
COMPS,ioos:station:USF.COMPS:ARP:1,2015-02-01T20:18:00Z,28.4330,-82.6670,45.17,1111122 
COMPS,ioos:station:USF.COMPS:ARP:1,2015-02-01T20:24:00Z,28.4330,-82.6670,44.49,1111122 
COMPS,ioos:station:USF.COMPS:ARP:1,2015-02-01T20:30:00Z,28.4330,-82.6670,44.21,1111122 
COMPS,ioos:station:USF.COMPS:ARP:1,2015-02-01T20:36:00Z,28.4330,-82.6670,43.77,1111122 
COMPS,ioos:station:USF.COMPS:ARP:1,2015-02-01T20:42:00Z,28.4330,-82.6670,42.89,1111122 
COMPS,ioos:station:USF.COMPS:ARP:1,2015-02-01T20:48:00Z,28.4330,-82.6670,42.63,1111122 
COMPS,ioos:station:USF.COMPS:ARP:1,2015-02-01T20:54:00Z,28.4330,-82.6670,42.72,1111122 
COMPS,ioos:station:USF.COMPS:ARP:1,2015-02-01T21:00:00Z,28.4330,-82.6670,41.87,1111122 
COMPS,ioos:station:USF.COMPS:ARP:1,2015-02-01T21:06:00Z,28.4330,-82.6670,41.85,1111122 
COMPS,ioos:station:USF.COMPS:ARP:1,2015-02-01T21:12:00Z,28.4330,-82.6670,41.91,1111122 
COMPS,ioos:station:USF.COMPS:ARP:1,2015-02-01T21:18:00Z,28.4330,-82.6670,42.06,1111122 
COMPS,ioos:station:USF.COMPS:ARP:1,2015-02-01T21:24:00Z,28.4330,-82.6670,41.56,1111122 
COMPS,ioos:station:USF.COMPS:ARP:1,2015-02-01T21:30:00Z,28.4330,-82.6670,40.52,1111122 
COMPS,ioos:station:USF.COMPS:ARP:1,2015-02-01T21:36:00Z,28.4330,-82.6670,39.97,1111122 
COMPS,ioos:station:USF.COMPS:ARP:1,2015-02-01T21:42:00Z,28.4330,-82.6670,40.0,1111122 
COMPS,ioos:station:USF.COMPS:ARP:1,2015-02-01T21:48:00Z,28.4330,-82.6670,39.76,1111122 
COMPS,ioos:station:USF.COMPS:ARP:1,2015-02-01T21:54:00Z,28.4330,-82.6670,39.85,1111122 
COMPS,ioos:station:USF.COMPS:ARP:1,2015-02-01T22:00:00Z,28.4330,-82.6670,40.47,1111122 
COMPS,ioos:station:USF.COMPS:ARP:1,2015-02-01T22:06:00Z,28.4330,-82.6670,40.98,1111122 
COMPS,ioos:station:USF.COMPS:ARP:1,2015-02-01T22:12:00Z,28.4330,-82.6670,41.39,1111122 
COMPS,ioos:station:USF.COMPS:ARP:1,2015-02-01T22:18:00Z,28.4330,-82.6670,41.74,1111122 
COMPS,ioos:station:USF.COMPS:ARP:1,2015-02-01T22:24:00Z,28.4330,-82.6670,42.07,1111122 
COMPS,ioos:station:USF.COMPS:ARP:1,2015-02-01T22:30:00Z,28.4330,-82.6670,42.2,1111122 
COMPS,ioos:station:USF.COMPS:ARP:1,2015-02-01T22:36:00Z,28.4330,-82.6670,43.23,1111122 
COMPS,ioos:station:USF.COMPS:ARP:1,2015-02-01T22:42:00Z,28.4330,-82.6670,58.03,1111122 
COMPS,ioos:station:USF.COMPS:ARP:1,2015-02-01T22:48:00Z,28.4330,-82.6670,65.11,1111122 
COMPS,ioos:station:USF.COMPS:ARP:1,2015-02-01T22:54:00Z,28.4330,-82.6670,67.32,1111122 
COMPS,ioos:station:USF.COMPS:ARP:1,2015-02-01T23:00:00Z,28.4330,-82.6670,69.12,1111122 
COMPS,ioos:station:USF.COMPS:ARP:1,2015-02-01T23:06:00Z,28.4330,-82.6670,70.8,1111122 
COMPS,ioos:station:USF.COMPS:ARP:1,2015-02-01T23:12:00Z,28.4330,-82.6670,72.35,1111122 
COMPS,ioos:station:USF.COMPS:ARP:1,2015-02-01T23:18:00Z,28.4330,-82.6670,73.45,1111122 
COMPS,ioos:station:USF.COMPS:ARP:1,2015-02-01T23:24:00Z,28.4330,-82.6670,74.25,1111122 
COMPS,ioos:station:USF.COMPS:ARP:1,2015-02-01T23:30:00Z,28.4330,-82.6670,75.6,1111122 
COMPS,ioos:station:USF.COMPS:ARP:1,2015-02-01T23:36:00Z,28.4330,-82.6670,76.46,1111122 
COMPS,ioos:station:USF.COMPS:ARP:1,2015-02-01T23:42:00Z,28.4330,-82.6670,77.23,1111122 
COMPS,ioos:station:USF.COMPS:ARP:1,2015-02-01T23:48:00Z,28.4330,-82.6670,77.13,1111122 
COMPS,ioos:station:USF.COMPS:ARP:1,2015-02-01T23:54:00Z,28.4330,-82.6670,77.14,1111122 
COMPS,ioos:station:USF.COMPS:ARP:1,2015-02-02T00:00:00Z,28.4330,-82.6670,75.76,1111122 
COMPS,ioos:station:USF.COMPS:ARP:1,2015-02-02T00:06:00Z,28.4330,-82.6670,73.61,1111122 
COMPS,ioos:station:USF.COMPS:ARP:1,2015-02-02T00:12:00Z,28.4330,-82.6670,71.05,1111122 
COMPS,ioos:station:USF.COMPS:ARP:1,2015-02-02T00:18:00Z,28.4330,-82.6670,70.07,1111122 
COMPS,ioos:station:USF.COMPS:ARP:1,2015-02-02T00:24:00Z,28.4330,-82.6670,70.24,1111122 
COMPS,ioos:station:USF.COMPS:ARP:1,2015-02-02T00:30:00Z,28.4330,-82.6670,70.33,1111122 
COMPS,ioos:station:USF.COMPS:ARP:1,2015-02-02T00:36:00Z,28.4330,-82.6670,69.45,1111122 
COMPS,ioos:station:USF.COMPS:ARP:1,2015-02-02T00:42:00Z,28.4330,-82.6670,70.22,1111122 
COMPS,ioos:station:USF.COMPS:ARP:1,2015-02-02T00:48:00Z,28.4330,-82.6670,72.33,1111122 
COMPS,ioos:station:USF.COMPS:ARP:1,2015-02-02T00:54:00Z,28.4330,-82.6670,72.34,1111122 
COMPS,ioos:station:USF.COMPS:ARP:1,2015-02-02T01:00:00Z,28.4330,-82.6670,71.49,1111122 
COMPS,ioos:station:USF.COMPS:ARP:1,2015-02-02T01:06:00Z,28.4330,-82.6670,75.08,1111122 
COMPS,ioos:station:USF.COMPS:ARP:1,2015-02-02T01:12:00Z,28.4330,-82.6670,77.71,1111122 
COMPS,ioos:station:USF.COMPS:ARP:1,2015-02-02T01:18:00Z,28.4330,-82.6670,78.96,1111122 
COMPS,ioos:station:USF.COMPS:ARP:1,2015-02-02T01:24:00Z,28.4330,-82.6670,79.34,1111122 
COMPS,ioos:station:USF.COMPS:ARP:1,2015-02-02T01:30:00Z,28.4330,-82.6670,82.22,1111122 
COMPS,ioos:station:USF.COMPS:ARP:1,2015-02-02T01:36:00Z,28.4330,-82.6670,82.88,1111122 
COMPS,ioos:station:USF.COMPS:ARP:1,2015-02-02T01:42:00Z,28.4330,-82.6670,84.38,1111122 
COMPS,ioos:station:USF.COMPS:ARP:1,2015-02-02T01:48:00Z,28.4330,-82.6670,83.82,1111122 
COMPS,ioos:station:USF.COMPS:ARP:1,2015-02-02T01:54:00Z,28.4330,-82.6670,79.04,1111122 
COMPS,ioos:station:USF.COMPS:ARP:1,2015-02-02T02:00:00Z,28.4330,-82.6670,75.12,1111122 
COMPS,ioos:station:USF.COMPS:ARP:1,2015-02-02T02:06:00Z,28.4330,-82.6670,73.25,1111122 
COMPS,ioos:station:USF.COMPS:ARP:1,2015-02-02T02:12:00Z,28.4330,-82.6670,72.81,1111122 
COMPS,ioos:station:USF.COMPS:ARP:1,2015-02-02T02:18:00Z,28.4330,-82.6670,75.32,1111122 
COMPS,ioos:station:USF.COMPS:ARP:1,2015-02-02T02:24:00Z,28.4330,-82.6670,77.98,1111122 
COMPS,ioos:station:USF.COMPS:ARP:1,2015-02-02T02:30:00Z,28.4330,-82.6670,76.99,1111122 
COMPS,ioos:station:USF.COMPS:ARP:1,2015-02-02T02:36:00Z,28.4330,-82.6670,73.61,1111122 
COMPS,ioos:station:USF.COMPS:ARP:1,2015-02-02T02:42:00Z,28.4330,-82.6670,72.88,1111122 
COMPS,ioos:station:USF.COMPS:ARP:1,2015-02-02T02:48:00Z,28.4330,-82.6670,72.04,1111122 
COMPS,ioos:station:USF.COMPS:ARP:1,2015-02-02T02:54:00Z,28.4330,-82.6670,71.03,1111122 
COMPS,ioos:station:USF.COMPS:ARP:1,2015-02-02T03:00:00Z,28.4330,-82.6670,70.15,1111122 
COMPS,ioos:station:USF.COMPS:ARP:1,2015-02-02T03:06:00Z,28.4330,-82.6670,69.95,1111122 